SCP
0 0 0 0 0 0 0 0 0 0 0 0 0 0 0 0 0 0 0 0 0 0 0 0 0 0 0 0 0 0 0 0 0 0 0 0 0 0 0 0 0 0 0 0
0 0 0 0 0 0 0 0 0 0 0 0 0 0 0 0 0 0 0 0 0 0 0 0 0 0 0 0 0 0 0 0 0 0 0 0 0 0 0 0 0 0 0 0
0 0 0 0 0 0 0 0 0 0 0 0 0 0 0 0 0 0 0 0 0 0 0 0 0 0 0 0 0 0 0 0 0 0 0 0 0 0 0 0 0 0 0 0
0 0 0 0 0 0 0 0 0 0 0 0 0 0 0 0 0 0 0 0 0 0 0 0 0 0 0 0 0 0 0 0 0 0 0 0 0 0 0 0 0 0 0 0
0 0 0 0 0 0 0 0 0 0 0 0 0 0 0 0 0 0 0 0 0 0 0 0 0 0 0 0 0 0 0 0 0 0 0 0 0 0 0 0 0 0 0 0
0 0 0 0 0 0 0 0 0 0 0 0 0 0 0 0 0 0 0 0 0 0 0 0 0 0 0 0 0 0 0 1 1 0 0 0 0 0 0 0 0 0 0 0
0 0 0 0 0 0 0 0 0 0 0 0 0 0 0 0 0 0 0 0 0 0 0 0 0 0 0 0 0 0 0 1 1 0 0 0 0 0 0 0 0 0 0 0
0 0 0 0 0 0 0 0 0 0 0 0 0 0 0 0 0 0 0 0 0 0 0 0 0 0 0 0 0 0 0 0 0 0 0 0 0 0 0 0 0 0 0 0
0 0 0 0 0 0 0 0 0 0 0 0 0 0 0 0 0 0 0 0 0 0 0 0 0 0 0 0 0 0 0 0 0 0 0 0 0 0 0 0 0 0 0 0
0 0 0 0 0 0 0 0 0 0 0 0 0 0 0 0 0 0 0 0 0 0 0 0 0 0 0 0 0 0 0 0 0 0 0 0 0 0 0 0 0 0 0 0
0 0 0 0 0 0 0 0 0 0 0 0 0 0 0 0 0 0 0 0 0 0 0 0 0 0 0 0 0 0 0 1 0 0 0 0 0 0 0 0 0 0 0 0
0 0 0 0 0 0 0 0 0 0 0 0 0 0 0 0 0 0 0 0 0 0 0 0 0 0 0 0 0 1 1 1 1 1 0 0 0 0 0 0 1 1 1 0
0 0 0 0 0 0 0 0 0 0 0 0 0 0 0 0 0 0 0 0 0 0 0 0 0 0 0 0 1 1 1 1 1 1 1 0 0 0 0 1 1 1 1 1
0 0 0 0 0 0 0 0 0 0 0 0 0 0 0 0 0 0 0 0 0 0 0 0 0 1 1 1 1 1 1 1 1 1 1 1 1 1 1 1 1 1 1 1
0 0 0 0 0 0 0 0 0 0 0 0 0 0 0 0 0 0 0 1 1 1 1 1 1 1 1 1 1 1 1 1 1 1 1 1 1 1 1 1 1 1 1 1
0 0 0 0 0 0 0 0 0 0 0 0 0 0 0 0 0 0 1 1 1 1 1 1 1 1 1 1 1 1 1 1 1 1 1 1 1 1 1 1 1 1 1 1
0 0 0 0 0 0 0 0 0 0 0 0 0 0 0 0 0 0 0 1 1 1 1 1 1 1 1 1 1 1 1 1 1 1 1 1 1 1 1 1 1 1 1 1
0 0 0 0 0 0 0 0 0 0 0 0 0 0 0 0 0 0 0 0 1 1 1 1 1 1 1 1 1 1 1 1 1 1 1 1 1 1 1 1 1 1 1 1
0 0 0 0 0 0 0 0 0 0 0 0 0 0 0 0 0 0 0 1 1 1 1 1 1 1 1 1 1 1 1 1 1 1 1 1 1 1 1 1 1 1 1 1
0 0 0 0 0 0 0 0 0 0 0 0 0 0 0 0 0 0 0 1 1 1 1 1 1 1 1 1 1 1 1 1 1 1 1 1 1 1 1 1 1 1 1 1
0 0 0 0 0 0 0 0 0 0 0 0 0 0 0 0 0 0 1 1 1 1 1 1 1 1 1 1 1 1 1 1 1 1 1 1 1 1 1 1 1 1 1 1
0 0 0 0 0 0 0 0 0 0 0 0 0 0 0 0 0 0 0 0 1 1 1 1 1 1 1 1 1 1 1 1 1 1 1 1 1 1 1 1 1 1 1 1
0 0 0 0 0 0 0 0 0 0 0 0 0 0 0 0 0 0 0 0 0 1 1 1 1 1 1 1 1 1 1 1 1 1 1 1 1 1 1 1 1 1 1 1
0 0 0 0 0 0 0 0 0 0 0 0 0 0 0 0 0 0 0 0 1 1 1 1 1 1 1 1 1 1 1 1 2 2 2 2 1 1 1 1 1 1 1 1
0 0 0 0 0 0 0 0 0 0 0 0 0 0 0 0 0 0 0 0 1 1 1 1 1 1 1 1 1 1 1 1 1 1 2 1 1 1 1 1 1 1 1 1
0 0 0 0 0 0 0 0 0 0 0 0 0 0 0 0 0 0 0 0 1 1 1 1 1 1 1 1 1 1 1 1 1 1 1 1 1 1 1 1 1 1 1 1
Wind_Speed
7 9 7 4 4 5 5 5 4 3 1 4 5 4 4 8 9 10 11 11 12 12 12 11 11 10 10 9 9 9 8 8 6 5 4 4 4 3 3 2 3 3 2 2
9 10 6 5 4 6 6 6 4 1 1 4 4 4 4 7 9 10 11 11 12 12 12 12 12 11 11 11 10 10 9 9 8 5 4 3 3 3 3 2 3 2 3 2
11 4 3 6 6 7 7 6 5 4 3 5 6 5 6 7 9 10 10 11 12 12 13 13 13 13 12 12 12 10 10 9 8 7 5 4 4 3 4 4 3 3 3 3
9 6 6 8 8 9 7 3 5 5 7 4 5 5 3 6 8 10 11 11 12 12 13 13 14 14 13 13 12 11 10 10 9 8 7 7 5 5 4 4 3 4 4 3
8 6 8 9 7 7 5 4 6 7 8 8 6 8 2 5 6 8 9 10 10 11 12 13 14 14 13 12 11 11 10 10 9 9 8 7 6 5 4 4 5 4 4 4
8 5 7 6 5 5 3 5 7 8 8 9 4 7 4 2 2 3 6 8 8 9 10 11 12 12 12 12 11 11 11 10 10 9 9 8 6 5 5 5 5 5 4 4
10 9 7 6 8 8 8 9 6 7 7 5 2 7 4 0 1 2 3 5 7 8 9 11 11 12 12 12 12 11 12 11 11 10 9 9 8 7 7 6 5 4 4 4
10 10 10 8 9 7 9 11 8 7 6 4 5 7 2 0 2 2 3 4 6 8 9 10 11 11 11 12 13 12 12 12 11 11 9 9 9 7 6 6 5 5 3 3
7 6 5 6 7 8 8 9 9 10 10 9 5 4 4 4 4 4 4 4 5 7 8 9 9 10 11 11 12 12 12 12 11 11 10 9 9 7 6 6 6 5 4 4
7 7 6 6 8 7 8 7 7 9 8 9 7 7 3 2 2 4 4 4 5 6 7 8 8 8 9 10 10 11 11 11 11 11 10 8 9 8 7 6 6 5 4 4
10 10 8 9 10 9 9 9 8 8 8 9 8 4 2 1 2 2 3 3 4 5 6 7 7 7 8 9 10 10 10 11 11 10 10 9 9 9 8 7 6 6 5 5
7 9 9 9 5 5 9 10 11 9 9 9 10 5 1 1 2 2 1 1 1 3 4 6 7 7 7 9 9 9 10 10 10 10 10 10 9 8 8 8 7 6 6 6
4 8 9 10 10 9 10 10 11 12 10 10 11 6 2 0 2 2 2 1 2 3 4 5 6 7 7 7 7 8 9 10 10 10 10 10 9 9 8 7 7 6 6 6
6 10 11 11 6 4 8 10 11 13 11 11 12 10 5 4 4 3 2 2 2 3 4 5 6 6 6 6 7 7 8 8 8 9 9 9 9 9 8 7 7 7 7 7
7 11 10 11 8 9 10 11 12 14 14 14 11 9 6 4 4 3 3 2 2 3 5 5 6 5 6 6 7 7 6 6 7 8 8 8 8 8 7 7 7 7 7 8
6 9 10 12 10 11 13 13 13 14 14 15 14 10 5 2 2 2 2 2 2 3 4 5 6 6 6 6 7 7 7 7 7 7 7 7 7 8 8 8 7 7 7 7
6 7 9 12 9 11 15 12 12 12 11 11 11 7 4 3 2 2 3 2 2 2 2 4 5 5 5 6 7 7 7 7 7 7 6 7 7 7 8 8 8 8 8 8
8 8 8 10 9 16 5 2 5 7 7 7 7 5 3 3 3 2 3 4 3 3 2 2 3 5 5 6 7 7 7 7 7 7 6 7 7 7 7 7 7 7 7 6
9 9 8 10 13 14 7 3 5 8 7 4 4 3 3 3 4 2 2 4 4 4 3 2 2 3 4 5 6 8 8 7 7 7 7 7 7 7 7 7 7 7 6 6
7 9 10 10 13 14 4 1 2 7 8 0 2 2 3 3 5 0 5 5 5 4 2 1 1 2 4 4 6 8 8 7 7 7 6 6 6 7 7 7 6 6 6 6
8 9 12 14 14 9 3 1 4 9 2 3 1 1 2 3 4 4 4 4 4 4 3 1 0 2 2 3 5 6 7 7 6 6 6 6 6 6 6 5 6 6 6 6
8 8 9 10 13 7 4 0 4 3 3 1 2 2 2 3 3 3 3 3 4 3 3 2 0 1 1 2 4 5 5 5 5 5 5 6 6 6 5 6 6 6 6 7
6 7 6 6 4 4 2 2 3 3 3 3 3 3 3 3 3 3 3 3 3 3 2 2 1 1 1 1 2 3 3 3 5 6 6 5 5 5 5 6 6 6 6 6
4 3 6 7 5 3 3 2 3 4 4 4 4 4 3 4 4 4 4 4 4 3 3 2 1 1 1 1 1 2 2 3 4 5 5 5 5 5 5 5 5 6 6 6
6 5 6 8 7 6 4 4 4 4 4 4 5 5 5 4 4 4 4 4 4 3 3 3 2 2 2 1 2 2 2 3 3 3 3 4 5 5 5 5 4 5 5 4
7 8 9 7 5 6 5 4 5 5 5 5 5 5 5 5 5 4 4 4 4 4 4 3 3 3 3 2 2 2 2 3 3 4 4 4 4 4 5 5 5 3 3 3
Wind_Direction
206 228 228 236 266 304 301 302 314 351 38 257 255 263 209 196 204 202 199 198 199 198 190 188 191 188 184 183 183 186 188 177 182 183 186 179 176 177 167 164 144 167 159 148
212 226 238 249 250 256 264 277 289 313 4 270 272 263 223 207 211 211 209 205 206 199 192 191 194 194 190 186 187 187 190 186 190 185 187 185 173 175 165 164 151 183 177 182
229 220 203 230 230 244 254 279 305 307 265 231 265 237 200 196 207 212 217 217 212 205 200 195 199 199 194 190 190 190 190 187 192 184 182 174 166 177 171 176 174 185 192 194
230 227 225 236 240 255 255 283 289 280 263 249 257 275 186 194 204 212 216 214 214 206 205 201 199 200 198 193 190 189 188 188 186 185 190 186 187 186 181 188 179 181 190 189
214 216 230 238 249 262 280 284 272 269 265 263 239 266 214 175 210 211 210 211 212 205 204 203 201 199 198 190 186 185 184 185 184 189 190 196 199 192 183 183 176 190 179 189
238 221 237 246 245 245 236 236 236 240 249 251 248 266 254 183 225 216 203 206 209 203 200 200 197 193 192 188 185 183 179 182 182 186 189 196 197 197 190 188 180 190 181 187
217 214 215 226 224 206 228 245 243 231 228 242 189 257 264 325 244 252 228 205 202 197 194 191 191 190 190 190 187 182 179 183 184 186 189 192 194 195 198 199 192 202 190 187
219 215 205 213 237 243 239 255 262 270 272 259 205 248 264 214 242 242 228 200 191 192 191 189 190 190 191 192 192 187 183 186 186 187 190 194 194 198 198 199 203 198 204 188
235 222 185 209 234 247 236 242 267 275 271 272 254 246 238 208 220 211 202 187 184 188 189 188 187 189 189 191 193 192 188 188 189 189 188 195 195 200 199 193 203 205 198 186
248 245 206 195 211 221 256 254 242 252 264 266 249 245 251 219 231 202 201 190 181 184 186 186 185 188 188 188 188 190 192 192 191 190 192 191 194 195 198 202 203 206 201 190
248 245 215 204 221 218 207 223 244 255 260 270 272 263 53 288 291 254 219 191 186 188 185 181 182 185 187 187 185 186 189 192 194 196 194 196 195 194 195 199 201 202 204 193
234 252 242 225 210 255 243 240 238 246 246 255 274 274 84 323 318 315 298 228 191 191 188 178 176 180 186 185 183 183 187 192 195 194 196 197 198 197 197 197 199 198 199 200
222 246 239 216 198 202 227 234 242 254 256 253 260 262 137 203 293 299 283 252 194 187 190 177 173 177 182 183 183 185 194 194 193 191 195 196 196 197 200 198 196 197 199 202
263 251 256 264 278 243 229 229 233 245 251 254 257 273 274 284 297 303 296 253 213 192 192 187 179 181 182 182 182 187 196 193 192 192 193 194 196 197 197 195 197 198 200 202
254 253 253 266 274 265 258 252 242 242 256 266 274 278 284 295 305 310 301 261 218 203 196 192 190 183 185 181 180 183 187 186 189 191 194 191 193 195 195 197 200 201 204 204
256 265 259 253 252 257 258 254 250 248 254 261 267 273 307 302 293 288 285 268 239 213 204 197 195 190 190 185 180 178 183 181 184 192 194 187 189 193 195 199 203 203 203 204
251 251 257 257 249 253 250 248 248 246 251 262 266 282 301 281 266 275 293 291 293 276 223 207 201 200 198 190 181 180 183 181 182 188 191 189 193 197 200 201 200 202 200 198
246 253 253 260 249 248 261 315 262 250 260 275 281 298 291 287 287 312 322 320 320 315 280 223 209 197 194 187 179 180 177 179 183 184 189 195 197 198 201 202 201 202 199 199
239 240 253 254 249 251 232 232 253 254 250 289 288 296 298 283 250 225 20 354 336 327 310 260 222 200 189 185 177 173 173 174 181 186 190 194 197 197 199 202 200 200 198 201
213 225 247 247 255 259 265 60 284 260 240 5 312 302 308 278 250 79 22 356 357 351 344 315 192 190 184 180 176 175 175 176 182 187 189 193 198 199 200 203 203 199 200 203
212 219 235 247 252 256 341 340 225 240 285 59 354 324 302 293 318 341 337 348 352 350 355 8 167 189 169 175 178 182 181 184 186 187 185 188 195 201 200 200 200 198 201 203
254 244 235 246 251 253 38 198 262 331 22 10 348 332 330 333 335 333 327 330 331 338 358 7 36 134 140 166 177 182 185 183 184 186 190 191 195 205 193 196 199 202 202 200
255 282 288 273 291 24 13 308 321 315 311 323 327 330 322 312 316 326 328 323 320 320 335 341 18 104 120 159 177 186 179 180 185 187 191 195 194 200 198 198 198 200 203 211
238 271 271 269 265 286 285 298 312 311 308 309 311 307 303 302 309 316 323 323 320 321 318 311 274 204 180 185 193 205 181 187 192 192 194 196 198 199 194 205 208 211 211 216
286 267 260 259 270 277 263 285 298 308 312 311 308 301 298 295 294 300 306 313 315 313 310 294 266 247 230 227 231 224 191 193 202 203 205 209 208 205 203 207 214 219 219 225
255 257 260 272 285 280 283 292 306 304 298 297 295 294 295 290 288 291 293 296 297 298 298 282 268 260 249 232 228 225 212 211 212 214 218 222 221 211 212 208 207 197 227 189